Location: *
(38.9800°N, 16.0500°E)
Time: 22:12:12
(UTC+00:00)

CZ-2D R/B - Pass Details

Date: 07 April 2020
Orbit: 792 x 845 km, 98.7° (Epoch: 24 May)

Event Time Altitude Azimuth Distance (km) Brightness Sun altitude
Rises 02:02:03 0° 355° (N) 3,411 5.8 -27.4°
Reaches altitude 10° 02:05:16 10° 335° (NNW) 2,473 4.7 -26.9°
Enters shadow 02:07:10 15° 316° (NW) 2,132 4.2 -26.6°
